Location: Brachbach
(49.1847°N, 9.7240°E)
Time: 10:20:41
(UTC+00:00)

Cosmos 1025 Rocket - Pass Details

Date: 23 May 2024
Orbit: 590 x 614 km, 82.5° (Epoch: 15 June)

Event Time Altitude Azimuth Distance (km) Brightness Sun altitude
Rises 02:39:36 0° 174° (S) 2,870 6.1 -7.0°
Reaches altitude 10° 02:41:51 10° 169° (S) 1,971 5.3 -6.8°
Maximum altitude 02:46:04 50° 94° (E) 788 4.0 -6.3°
Drops below altitude 10° 02:50:19 10° 19° (NNE) 1,986 6.8 -5.7°
Sets 02:52:36 0° 15° (NNE) 2,894 7.5 -5.5°
